Weather History for Bowling Green, KY

Change the Weather History Date:

Tuesday, July 30, 2013

  Actual Average Record
Temperature  
Mean Temperature 71 °F 79 °F  
Max Temperature 79 °F 90 °F 103 °F (1999)
Min Temperature 63 °F 68 °F 53 °F (1965)
Degree Days  
Heating Degree Days 0 0  
Month to date heating degree days 0 0  
Since 1 June heating degree days 0 5  
Since 1 July heating degree days 0 0  
Cooling Degree Days 6 14  
Month to date cooling degree days 345 415  
Year to date cooling degree days 892 873  
Since 1 June cooling degree days 679 720  
Growing Degree Days 22 (Base 50)    
Moisture  
Dew Point 65 °F    
Average Humidity 76    
Maximum Humidity 93    
Minimum Humidity 58    
Precipitation  
Precipitation 0.13 in 0.10 in 2.90 in (1903)
Month to date precipitation 9.64 3.99  
Year to date precipitation 36.54 30.12  
Snow  
Snow 0.00 in 0.00 in 0.00 in ()
Month to date snowfall 0.0 0.0  
Since 1 June snowfall 0.0 0.0  
Since 1 July snowfall 0.0 0.0  
Snow Depth 0.00 in    
Sea Level Pressure  
Sea Level Pressure 30.16 in    
Wind  
Wind Speed 3 mph (SE)    
Max Wind Speed 14 mph    
Max Gust Speed 17 mph    
Visibility 9 miles    
Events Rain    
T = Trace of Precipitation, MM = Missing Value Source: NWS Daily Summary

Daily Weather History Graph

Daily Weather History Graph

Search for Another Location

Airport:

Trip Planner

Search our weather history database for the weather conditions in past years. The results will help you decide how hot, cold, wet, or windy it might be!

Date:

Astronomy

Jul. 30, 2013 Rise Set
Actual Time 5:49 AM CDT 7:54 PM CDT
Civil Twilight 5:20 AM CDT 8:22 PM CDT
Nautical Twilight 4:45 AM CDT 8:58 PM CDT
Astronomical Twilight 4:07 AM CDT 9:35 PM CDT
Moon 12:05 AM CDT (7/30) 2:14 PM CDT (7/30)
Length of Visible Light 15h 02m
Length of Day
14h 04m
Last Quarter, 41% of the Moon is Illuminated
Jul 30
Last Quarter
Aug 6
New
Aug 14
First Quarter
Aug 20
Full
Aug 28
Last Quarter

Hourly Weather History & Observations

Time (CDT) Temp. Dew Point Humidity Pressure Visibility Wind Dir Wind Speed Gust Speed Precip Events Conditions
12:53 AM 64.9 °F 61.0 °F 87% 30.18 in 10.0 mi Calm Calm - N/A   Clear
1:53 AM 64.0 °F 62.1 °F 93% 30.18 in 10.0 mi Calm Calm - N/A   Clear
2:53 AM 64.9 °F 62.1 °F 90% 30.18 in 10.0 mi Calm Calm - N/A   Clear
3:53 AM 64.9 °F 62.1 °F 90% 30.18 in 10.0 mi Calm Calm - N/A   Clear
4:53 AM 64.9 °F 62.1 °F 90% 30.19 in 10.0 mi Calm Calm - N/A   Clear
5:53 AM 64.9 °F 62.1 °F 90% 30.20 in 10.0 mi Calm Calm - N/A   Clear
6:53 AM 64.9 °F 63.0 °F 93% 30.20 in 10.0 mi Calm Calm - N/A   Clear
7:53 AM 68.0 °F 63.0 °F 84% 30.20 in 10.0 mi East 3.5 mph - N/A   Clear
8:53 AM 71.1 °F 62.1 °F 73% 30.19 in 10.0 mi SSE 5.8 mph - N/A   Clear
9:53 AM 72.0 °F 62.1 °F 71% 30.18 in 10.0 mi SE 4.6 mph - N/A   Clear
10:53 AM 73.9 °F 63.0 °F 68% 30.18 in 10.0 mi ESE 4.6 mph - N/A   Clear
11:53 AM 78.1 °F 64.0 °F 62% 30.17 in 10.0 mi Variable 3.5 mph - N/A   Mostly Cloudy
12:53 PM 79.0 °F 62.1 °F 56% 30.16 in 10.0 mi SE 3.5 mph - N/A   Mostly Cloudy
1:53 PM 79.0 °F 64.0 °F 60% 30.17 in 10.0 mi Calm Calm - N/A   Scattered Clouds
2:53 PM 77.0 °F 66.0 °F 69% 30.15 in 10.0 mi SE 5.8 mph - 0.00 in   Mostly Cloudy
3:53 PM 77.0 °F 66.9 °F 71% 30.15 in 10.0 mi SE 3.5 mph - 0.00 in Rain Light Rain
4:53 PM 75.0 °F 68.0 °F 79% 30.14 in 10.0 mi Calm Calm - 0.02 in Rain Light Rain
5:53 PM 73.0 °F 69.1 °F 87% 30.12 in 9.0 mi Calm Calm - 0.01 in Rain Light Rain
6:53 PM 72.0 °F 69.1 °F 91% 30.13 in 9.0 mi NW 3.5 mph - 0.02 in Rain Light Rain
7:53 PM 71.1 °F 70.0 °F 96% 30.11 in 6.0 mi East 5.8 mph - 0.00 in   Mostly Cloudy
8:53 PM 71.1 °F 68.0 °F 90% 30.12 in 10.0 mi ESE 4.6 mph - 0.00 in Rain Light Rain
9:50 PM 69.8 °F 66.2 °F 88% 30.15 in 3.0 mi South 5.8 mph - 0.04 in Rain Light Rain
9:51 PM 69.1 °F 66.9 °F 93% 30.14 in 4.0 mi South 5.8 mph - 0.04 in Rain Light Rain
10:01 PM 69.8 °F 66.2 °F 88% 30.14 in 4.0 mi SSE 8.1 mph - 0.02 in Rain Rain
10:06 PM 69.8 °F 66.2 °F 88% 30.14 in 4.0 mi SE 9.2 mph - 0.02 in Rain Rain
10:53 PM 69.1 °F 66.0 °F 90% 30.11 in 10.0 mi SE 11.5 mph - 0.04 in   Overcast
11:53 PM 68.0 °F 66.0 °F 93% 30.11 in 10.0 mi SE 6.9 mph - N/A   Overcast